Weather Roundup
Issued by NWS Springfield, MO

Home | Current Version | Previous Version | Text Only | Print | Product List | Glossary On
Versions: 1 2 3 4 5 6 7 8 9 10 11 12 13 14 15 16 17 18 19 20 21 22 23 24 25 26 27 28 29 30 31 32 33 34 35 36 37 38 39 40 41 42 43 44 45 46 47 48 49 50
000
NZUS99 KSGF 250307
HRRSGF

HOURLY WEATHER
NATIONAL WEATHER SERVICE SPRINGFIELD MO
1000 PM CDT SUN MAY 24 2015

......SGF CWA......

CITY           SKY/WX    TMP DP  RH WIND       PRES   REMARKS
SPRINGFIELD    CLOUDY    63  61  93 SE5       29.85S
JOPLIN         HVY RAIN  62  61  96 W10       29.88R VSB 1
WEST PLAINS    CLOUDY    68  64  87 S12G23    29.93R
ROLLA          CLOUDY    67  65  93 S12       29.85R
OSAGE BEACH    CLOUDY    66  63  88 E6        29.82F
BRANSON        CLOUDY    63  63 100 CALM      29.91R

......SURROUNDING SGF CWA......

CITY           SKY/WX    TMP DP  RH WIND       PRES   REMARKS
CHANUTE        LGT RAIN  62  61  96 CALM      29.87S
PARSONS        LGT RAIN  62  62 100 CALM      29.89R
COFFEYVILLE    LGT RAIN  62  61  96 SW3       29.88R
EMPORIA        CLOUDY    62  60  93 S8        29.83R
GROVE OK       RAIN      64  64 100 S8        29.90R
ROGERS AR      CLOUDY    63  61  93 S7        29.91R
SILOAM SPRINGS CLOUDY    63  55  77 S8        29.90F
HARRISON AR    MOCLDY    63  61  93 SW5       29.92R
NEAR YELLVILLE CLOUDY    70  66  88 S5        29.89R

......KANSAS AND MISSOURI......

CITY           SKY/WX    TMP DP  RH WIND       PRES   REMARKS
KANSAS CTY INT CLOUDY    62  61  96 S6        29.82R
DOWNTOWN KC    CLOUDY    65  61  87 S5        29.81R
COLUMBIA       LGT RAIN  68  66  93 E3        29.83F
SEDALIA        LGT RAIN  66  64  93 CALM      29.84F FOG
ST JOSEPH      CLOUDY    65  62  90 S3        29.82R
ST LOUIS       HVY RAIN  72  64  78 S12G21    29.92R
SPIRIT OF STL  RAIN      70  67  90 S8G21     29.88S FOG
KIRKSVILLE     LGT RAIN  65  64  97 S6        29.84S
WICHITA        CLOUDY    61  59  93 SW8       29.84R
TOPEKA         CLOUDY    64  62  93 CALM      29.82R
OLATHE         CLOUDY    63  62  97 S5        29.82F

......TENNESSEE......

CITY           SKY/WX    TMP DP  RH WIND       PRES   REMARKS
MEMPHIS        TSTM      71  67  87 S14       30.02R
NASHVILLE      CLOUDY    72  67  84 S9        30.14R

......ARKANSAS.......

CITY           SKY/WX    TMP DP  RH WIND       PRES   REMARKS
FAYETTEVILLE   CLOUDY    62  61  96 SW6       29.91R
FT SMITH       MOCLDY    63  61  93 CALM      29.91R
LITTLE ROCK    CLOUDY    72  67  84 S12       29.96R

......OKLAHOMA.......

CITY           SKY/WX    TMP DP  RH WIND       PRES   REMARKS
TULSA          MOCLDY    63  62  97 S3        29.89R
PONCA CITY     MOCLDY    64  63  96 SE14      29.84R
MCALESTER      CLOUDY    65  64  97 MISG      29.90R
OKLAHOMA CITY  PTCLDY    64  62  93 E13       29.86R

......IOWA............

CITY           SKY/WX    TMP DP  RH WIND       PRES   REMARKS
DES MOINES     CLOUDY    68  63  84 SW8       29.79R
QUAD CITIES    MOCLDY    70  66  87 S9        29.85R

......ILLINOIS........

CITY           SKY/WX    TMP DP  RH WIND       PRES   REMARKS
QUINCY         CLOUDY    68  66  93 S10       29.87R
CHICAGO        MOCLDY    64  61  90 SE7       29.92S




USA.gov is the U.S. government's official web portal to all federal, state and local government web resources and services.